Regional Weather Roundup
Issued by NWS Wakefield, VA

Home | Current Version | Previous Version | Graphics & Text | Print | Product List | Glossary On
Versions: 1 2 3 4 5 6 7 8 9 10 11 12 13 14 15 16 17 18 19 20 21 22 23 24 25 26 27 28 29 30 31 32 33 34 35 36 37 38 39 40 41 42 43 44 45 46 47 48 49
000
ASUS41 KAKQ 251710
RWRAKQ

REGIONAL WEATHER ROUNDUP
NATIONAL WEATHER SERVICE WAKEFIELD VA
1200 PM EST SUN JAN 25 2015

Note: "fair" indicates few or no clouds below 12,000 feet with no
significant weather and/or obstructions to visibility. * = Denotes
station may not report precipitation (e.g., rain,snow,etc.),
thunder or fog.

VAZ042-051-052>054-056-251800-
NORTHERN VIRGINIA

CITY           SKY/WX    TMP DP  RH WIND       PRES   REMARKS
WASH NATIONAL  PTSUNNY   51  29  42 W14G22    29.85F
DULLES         CLOUDY    45  29  53 VRB5      29.84F
FORT BELVOIR   PTSUNNY   46  30  53 S8        29.87R
QUANTICO       CLOUDY    41  34  76 S12       29.88F
FREDERICKSBRG* CLOUDY    46  32  59 SW9       29.88F
STAFFORD*      CLOUDY    44  29  55 CALM      29.92S
WARRENTON      CLOUDY    45  36  72 S5        29.86S
CULPEPER*      CLOUDY    45  32  61 S5        29.86F
MANASSAS*      MOSUNNY   45  30  57 VRB5      29.86S
LEESBURG*      PTSUNNY   45  34  65 SW3       29.84F
WINCHESTER     PTSUNNY   43  27  52 SW8G17    29.82F
FRONT ROYAL*   FAIR      41  32  70 SW5       29.82F
LURAY*         CLOUDY    43  32  65 SW7       29.83F
$$

VAZ048-049-060>072-079>083-251800-
CENTRAL AND SOUTH CENTRAL VIRGINIA

CITY           SKY/WX    TMP DP  RH WIND       PRES   REMARKS
RICHMOND       PTSUNNY   50  31  48 SW7       29.89F
CHESTERFIELD*  FAIR      48  27  43 SW6       29.90F
PETERSBURG*    MOSUNNY   52  31  44 SW7       29.90F
HANOVER        PTSUNNY   48  30  49 W8        29.90F
TAPPAHANNOCK*  PTSUNNY   49  29  46 SW7       29.90F
QUINTON*       FAIR      48  32  53 S5        29.89F
CHARLOTTSVILLE CLOUDY    40  30  67 S7        29.84F
GORDONSVILLE*  PTSUNNY   40  31  68 SW3       29.85F
ORANGE*        CLOUDY    43  32  65 CALM      29.87F
LOUISA*        CLOUDY    45  32  61 SW6       29.84F
BUMPASS*       PTSUNNY   44  31  61 SW6       29.87F
FARMVILLE*     CLOUDY    51  33  50 SW7       29.87F
CREWE*         FAIR      48  31  50 SW5       29.88F
FORT PICKETT*  FAIR      47  32  57 CALM      29.89F
CHASE CITY*    FAIR      50  35  57 W3        29.89F
CLARKSVILLE*   FAIR      48  32  53 CALM      29.90F
SOUTH HILL*    MOSUNNY   47  32  54 SW7       29.96F
LAWRENCEVILLE* FAIR      48  33  55 CALM      29.90F
EMPORIA*       SUNNY     46  32  57 S5        29.92F
$$

VAZ088>098-251800-
SOUTHEAST VIRGINIA

CITY           SKY/WX    TMP DP  RH WIND       PRES   REMARKS
NORFOLK        SUNNY     48  28  46 S3        29.91F
VIRGINIA BEACH MOSUNNY   49  30  48 SW6       29.92F
NORFOLK NAVAL  MOSUNNY   51  29  42 SW6       29.93F
WEST POINT*    SUNNY     51  31  46 SW7       29.91F
SALUDA*        FAIR      48  31  52 W6        29.90F
NEWPORT NEWS   SUNNY     50  32  50 MISG      29.92F
LANGLEY AFB    SUNNY     48  31  52 W7        29.91F
FORT EUSTIS    SUNNY     49  36  62 VRB7      29.90F
WILLIAMSBURG*    N/A     54  34  47 SW6       29.92F
HR EXEC AP*    FAIR      48  32  53 SW7       29.95F
FRANKLIN*      SUNNY     47  30  52 CALM      29.93F
WAKEFIELD      SUNNY     51  30  44 VRB3      29.91F
$$

VAZ020-022-025-037-045-251800-
WEST CENTRAL AND SOUTHWEST VIRGINIA

CITY           SKY/WX    TMP DP  RH WIND       PRES   REMARKS
STAUNTON*      CLOUDY    41  31  66 S6        29.84F
WAYNESBORO*    FAIR      39  30  69 W6        29.83F
HOT SPRINGS VA CLOUDY    30  30 100 W5        29.74F FOG
LYNCHBURG      CLOUDY    45  33  63 S12       29.87F
DANVILLE       MOSUNNY   51  31  46 SW8       29.90F
SOUTH BOSTON*  FAIR      51  31  46 SW9       29.90F
MARTINSVILLE   SUNNY     52  31  45 SW5       29.89F
ROANOKE        CLOUDY    44  29  55 SW10      29.87F
BLACKSBURG     PTSUNNY   40  31  69 SW3       29.87S
DUBLIN*        MOSUNNY   43  33  68 W12       29.84F
MARION*        MOSUNNY   43  30  61 W7        29.85F
HILLSVILLE*    SUNNY     45  30  55 SW12      29.82F
RICHLANDS*     FAIR      40  29  65 SE3       29.80F
WISE*          PTSUNNY   41  30  65 S8        29.79F
ABINGDON*      MOSUNNY   46  31  57 W8        29.83F
$$

MDZ021>025-VAZ099-100-251800-
SOUTHERN MARYLAND AND THE DELMARVA PENINSULA

CITY           SKY/WX    TMP DP  RH WIND       PRES   REMARKS
PATUXENT RIVER PTSUNNY   47  30  51 SW14      29.88S
BAY BRIDGE APT   N/A     46  30  53 W3        29.84F
LEONARDTOWN    MOSUNNY   45  30  57 SW12      29.89S
DOVER          MOSUNNY   48  32  54 W14       29.80S
GEORGETOWN     MOSUNNY   48  31  51 SW14      29.86F
EASTON         SUNNY     48  32  53 SW8       29.89S
CAMBRIDGE      SUNNY     46  32  57 SW5       29.87S
SALISBURY      MOSUNNY   48  30  49 W15       29.88S
OCEAN CITY     SUNNY     47  33  58 SW10      29.87F
WALLOPS ISLAND SUNNY     47  32  56 W9        29.90F
ACCOMACK*      MOSUNNY   46  30  53 W12       29.91F
$$

NCZ012>017-030>032-251800-
NORTH CENTRAL AND EASTERN NORTH CAROLINA

CITY           SKY/WX    TMP DP  RH WIND       PRES   REMARKS
ROANOKE RAPIDS FAIR      50  32  50 CALM      29.92F
RALEIGH        MOSUNNY   50  32  50 SW8       29.93F
ELIZABETH CITY SUNNY     48  33  56 VRB3      29.95F
AHOSKIE*       SUNNY     47  31  51 CALM      29.93F
EDENTON*       SUNNY     48  32  54 CALM      29.94F
CURRITUCK*     SUNNY     48  30  50 W6        29.95F
KILL DEVIL HLS SUNNY     47  33  59 W3        29.95F
MANTEO         SUNNY     46  28  49 NW3       29.97F
CAPE HATTERAS  SUNNY     48  33  56 VRB6      29.96F
TARBORO*       FAIR      50  32  50 W3        29.95F
GOLDSBORO      SUNNY     50  37  59 N5        29.94F
WASHINGTON     SUNNY     48  32  53 CALM      29.95F
GREENVILLE     SUNNY     50  32  50 CALM      29.96F
NEW BERN       SUNNY     50  31  48 CALM      29.95F
WILMINGTON     SUNNY     51  33  50 W5        29.98F
$$

VAZ048-251800-
ELSEWHERE

CITY           SKY/WX    TMP DP  RH WIND       PRES   REMARKS
HARRISBURG PA  LGT RAIN  37  30  75 SW3       29.82S
BALTIMORE      PTSUNNY   47  30  51 W10       29.83F
ANNAPOLIS      PTSUNNY   47  29  49 NW8       29.83F
ANDREWS AFB    PTSUNNY   47  30  50 W13G22    29.84F
PHILADELPHIA   PTSUNNY   44  31  60 W14       29.83S
HENDERSON NC   SUNNY     49  29  45 SW5       29.91F
GREENSBORO     MOSUNNY   50  31  48 SW12      29.89F
ROCKY MOUNT    SUNNY     50  30  46 CALM      29.94F
$$

VAZ100-251800-
MARINE

STATION/POSITION TIME  TEMP    WIND        PRES    WAVE   SWELL
                       AIR SEA DIR/SP/G            HT/PER HT/PER
                 (UTC) (F)     (DEG/KT/KT) (MB)    (FT/S) (FT/S)
BRANDYWINE LGT   1700   42 37  280/ 12/ 12 1010.7S
CAPE MAY NJ      1700   40 38  260/  9/ 10 1010.3S
LEWES DE         1700   46 38  270/ 12/ 15 1010.7F
15NM E FENWICK I 1700   42 42              1010.9R   3/10
OCEAN-CITY-INLET 1700   45 39  250/ 14/ 17 1011.1F
WACHAPREAGUE VA  1700   47 40  250/  8/ 13 1012.6F
THOMAS POINT MD  1700   41 37  170/  7/ 10 1011.6F
GOOSES REEF MD   1700   42     VRB  8/ 10  1010.3S
COVE POINT MD    1700   45     260/ 10/ 12 1011.2F
SOLOMONS ISLAND  1700      38                N/A
BISHOPS HEAD MD  1700   40 38  230/ 14/ 16 1011.3F
PINEY POINT MD   1700          260/  4/  4   N/A
POTOMAC MD       1700   42     240/  4/  6 1011.5F
CAMBRIDGE MD     1700   46 36  260/  9/ 12 1011.1F
LEWISETTA VA     1700   45 38  260/ 10/ 11 1011.9F
RAPPAHANNOCK LGT 1700          210/  9/ 10 1013.4S
STINGRAY PT      1700   43     210/  4/  6 1013.5F
YORK RVR RNG VA  1700   44     210/  1/  3 1012.3F
YORKTOWN VA      1700   47 40  270/  6/  8 1012.5F
JAMESTOWN VA     1700   44     350/  4/  6   N/A
DOMINION TERM VA 1700   43     160/  4/  5 1013.2F
KIPTOPEKE VA     1700      45  250/  7/  9   N/A
CHES BAY BRIDGE  1700   43 42   CALM  /  3 1012.8F
CAPE HENRY VA    1700   47     220/  5/  7 1012.1F
CHESAPEAKE LGHT  1600   44     250/ 10/ 10 1014.6R
WILLOUBY STN VA  1700   45     220/  4/  5 1013.6F
S CRANEY ISL VA  1700          210/  3/  4 1013.1F
CAPE HENRY BUOY  1700      45                N/A     2/ 8   2/11
1ST LANDING BUOY 1700   43     250/  6/  6 1013.3F
CAPE CHARLES BUO 1700      43                N/A     2/11   2/11
OFFSHORE WE BUOY 1700      47                N/A     3/10   3/10
64NM E OF VA BCH 1700   46 53  290/ 10/ 12 1013.3F   5/ 8   5/ 8
DUCK PIER NC     1700   45 43  230/  5/  7 1013.6F
44100 DUCK FRF   1700      45                N/A     3/11   2/11
44056 DUCK FRF   1700      44                N/A     2/11   2/11
OREGON INLET NC  1700   44 47  230/  7/  9 1014.9R
HATTERAS NC      1700   45 53  320/  5/  7 1015.0F


USA.gov is the U.S. government's official web portal to all federal, state and local government web resources and services.